Torna al catalogo

STARLINK-5196

AttivoComunicazioniVLEO
NORAD 55319·PAYLOAD·🇺🇸 United States

Lanciato Jan 19, 2023 da Vandenberg Space Force Base

Loading…

Prossimi Passaggi (prossime 24 ore)

TLE

AggiornatoSource: CelesTrak SupGP

Epoca: Sep 15, 2026, 01:37 UTC

1 55319C 23010BC  26258.06784722  .00661280  00000+0  55055-1 0  2589
2 55319  70.0001 246.9193 0003544 268.4507 332.9637 14.98250850    11

Traccia STARLINK-5196 in tempo reale con AllMySat

Download on the App Store